Wetterdaten: Mittwoch, 09.09.2009
Datum Zeit Temp. I. Temp. A. Boden 5 cm Feuchte A. Sonne Luftdruck Regen Wind
09.09.2009 00:01 20,4 C 13,8 C 12,5 C 75 % 0 % 1019 hPa 0,0 l/m 0,0 km/h (0 Bft)
09.09.2009 00:04 20,4 C 13,7 C 12,7 C 75 % 0 % 1019 hPa 0,0 l/m 0,5 km/h (0 Bft)
09.09.2009 00:07 20,4 C 13,6 C 12,7 C 76 % 0 % 1019 hPa 0,0 l/m 0,0 km/h (0 Bft)
09.09.2009 00:10 20,4 C 13,6 C 12,8 C 76 % 0 % 1019 hPa 0,0 l/m 0,0 km/h (0 Bft)
09.09.2009 00:13 20,4 C 13,5 C 12,8 C 76 % 0 % 1019 hPa 0,0 l/m 0,0 km/h (0 Bft)
09.09.2009 00:16 20,4 C 13,4 C 12,7 C 76 % 0 % 1019 hPa 0,0 l/m 0,0 km/h (0 Bft)
09.09.2009 00:19 20,4 C 13,3 C 12,3 C 76 % 0 % 1019 hPa 0,0 l/m 0,0 km/h (0 Bft)
09.09.2009 00:22 20,4 C 13,3 C 12,5 C 76 % 0 % 1019 hPa 0,0 l/m 0,1 km/h (0 Bft)
09.09.2009 00:25 20,4 C 13,2 C 12,5 C 76 % 0 % 1019 hPa 0,0 l/m 0,0 km/h (0 Bft)
09.09.2009 00:28 20,4 C 13,1 C 12,1 C 77 % 0 % 1019 hPa 0,0 l/m 0,0 km/h (0 Bft)
09.09.2009 00:31 20,4 C 13,0 C 12,0 C 78 % 0 % 1019 hPa 0,0 l/m 0,0 km/h (0 Bft)
09.09.2009 00:34 20,4 C 13,0 C 12,1 C 78 % 0 % 1019 hPa 0,0 l/m 0,0 km/h (0 Bft)
09.09.2009 00:37 20,4 C 12,9 C 12,0 C 78 % 0 % 1019 hPa 0,0 l/m 0,0 km/h (0 Bft)
09.09.2009 00:40 20,4 C 12,8 C 11,9 C 78 % 0 % 1019 hPa 0,0 l/m 0,0 km/h (0 Bft)
09.09.2009 00:43 20,4 C 12,8 C 11,9 C 78 % 0 % 1019 hPa 0,0 l/m 0,0 km/h (0 Bft)
09.09.2009 00:46 20,4 C 12,8 C 12,2 C 78 % 0 % 1019 hPa 0,0 l/m 0,0 km/h (0 Bft)
09.09.2009 00:49 20,4 C 12,8 C 12,1 C 78 % 0 % 1019 hPa 0,0 l/m 0,0 km/h (0 Bft)
09.09.2009 00:52 20,4 C 12,8 C 12,2 C 78 % 0 % 1019 hPa 0,0 l/m 0,0 km/h (0 Bft)
09.09.2009 00:55 20,4 C 12,7 C 12,2 C 78 % 0 % 1019 hPa 0,0 l/m 0,0 km/h (0 Bft)
09.09.2009 00:58 20,4 C 12,7 C 12,1 C 79 % 0 % 1019 hPa 0,0 l/m 0,0 km/h (0 Bft)
09.09.2009 01:01 20,4 C 12,7 C 12,0 C 79 % 0 % 1019 hPa 0,0 l/m 0,0 km/h (0 Bft)
09.09.2009 01:04 20,4 C 12,6 C 11,9 C 79 % 0 % 1019 hPa 0,0 l/m 0,0 km/h (0 Bft)
09.09.2009 01:07 20,4 C 12,5 C 11,7 C 80 % 0 % 1019 hPa 0,0 l/m 0,0 km/h (0 Bft)
09.09.2009 01:10 20,4 C 12,5 C 11,8 C 80 % 0 % 1019 hPa 0,0 l/m 0,0 km/h (0 Bft)
09.09.2009 01:13 20,4 C 12,4 C 12,0 C 80 % 0 % 1019 hPa 0,0 l/m 0,0 km/h (0 Bft)
09.09.2009 01:16 20,4 C 12,4 C 12,1 C 80 % 0 % 1019 hPa 0,0 l/m 0,0 km/h (0 Bft)
09.09.2009 01:19 20,4 C 12,3 C 11,9 C 80 % 0 % 1019 hPa 0,0 l/m 0,0 km/h (0 Bft)
09.09.2009 01:22 20,4 C 12,2 C 11,8 C 80 % 0 % 1018 hPa 0,0 l/m 0,0 km/h (0 Bft)
09.09.2009 01:25 20,4 C 12,2 C 12,0 C 81 % 0 % 1018 hPa 0,0 l/m 0,0 km/h (0 Bft)
09.09.2009 01:28 20,4 C 12,2 C 11,8 C 81 % 0 % 1018 hPa 0,0 l/m 0,0 km/h (0 Bft)
09.09.2009 01:31 20,4 C 12,2 C 11,9 C 81 % 0 % 1018 hPa 0,0 l/m 0,0 km/h (0 Bft)
09.09.2009 01:34 20,4 C 12,1 C 11,8 C 81 % 0 % 1018 hPa 0,0 l/m 0,0 km/h (0 Bft)
09.09.2009 01:37 20,4 C 12,1 C 11,7 C 82 % 0 % 1018 hPa 0,0 l/m 0,0 km/h (0 Bft)
09.09.2009 01:40 20,4 C 12,1 C 11,7 C 82 % 0 % 1018 hPa 0,0 l/m 0,0 km/h (0 Bft)
09.09.2009 01:43 20,4 C 12,1 C 11,5 C 82 % 0 % 1018 hPa 0,0 l/m 0,0 km/h (0 Bft)
09.09.2009 01:46 20,4 C 12,1 C 11,7 C 82 % 0 % 1018 hPa 0,0 l/m 0,0 km/h (0 Bft)
09.09.2009 01:49 20,4 C 12,0 C 11,7 C 82 % 0 % 1018 hPa 0,0 l/m 0,0 km/h (0 Bft)
09.09.2009 01:52 20,4 C 12,0 C 11,7 C 83 % 0 % 1018 hPa 0,0 l/m 0,0 km/h (0 Bft)
09.09.2009 01:55 20,4 C 11,9 C 11,6 C 83 % 0 % 1018 hPa 0,0 l/m 0,0 km/h (0 Bft)
09.09.2009 01:58 20,4 C 11,9 C 11,6 C 83 % 0 % 1018 hPa 0,0 l/m 0,0 km/h (0 Bft)
09.09.2009 02:01 20,4 C 11,8 C 11,7 C 83 % 0 % 1018 hPa 0,0 l/m 0,0 km/h (0 Bft)
09.09.2009 02:04 20,4 C 11,8 C 11,5 C 83 % 0 % 1018 hPa 0,0 l/m 0,0 km/h (0 Bft)
09.09.2009 02:07 20,4 C 11,8 C 11,4 C 83 % 0 % 1018 hPa 0,0 l/m 0,0 km/h (0 Bft)
09.09.2009 02:10 20,4 C 11,8 C 11,7 C 83 % 0 % 1018 hPa 0,0 l/m 0,0 km/h (0 Bft)
09.09.2009 02:13 20,4 C 11,8 C 11,5 C 83 % 0 % 1018 hPa 0,0 l/m 0,0 km/h (0 Bft)
09.09.2009 02:16 20,4 C 11,8 C 11,3 C 83 % 0 % 1018 hPa 0,0 l/m 0,0 km/h (0 Bft)
09.09.2009 02:19 20,4 C 11,8 C 11,3 C 83 % 0 % 1018 hPa 0,0 l/m 0,0 km/h (0 Bft)
09.09.2009 02:22 20,4 C 11,7 C 11,4 C 84 % 0 % 1018 hPa 0,0 l/m 0,0 km/h (0 Bft)
09.09.2009 02:25 20,4 C 11,7 C 11,3 C 84 % 0 % 1018 hPa 0,0 l/m 0,0 km/h (0 Bft)
09.09.2009 02:28 20,4 C 11,6 C 11,4 C 84 % 0 % 1018 hPa 0,0 l/m 0,0 km/h (0 Bft)
09.09.2009 02:31 20,4 C 11,6 C 11,6 C 84 % 0 % 1018 hPa 0,0 l/m 0,0 km/h (0 Bft)
09.09.2009 02:34 20,4 C 11,6 C 11,6 C 84 % 0 % 1018 hPa 0,0 l/m 0,0 km/h (0 Bft)
09.09.2009 02:37 20,3 C 11,6 C 11,3 C 84 % 0 % 1018 hPa 0,0 l/m 0,0 km/h (0 Bft)
09.09.2009 02:40 20,3 C 11,6 C 11,5 C 85 % 0 % 1018 hPa 0,0 l/m 0,0 km/h (0 Bft)
09.09.2009 02:43 20,3 C 11,6 C 11,4 C 85 % 0 % 1018 hPa 0,0 l/m 0,0 km/h (0 Bft)
09.09.2009 02:46 20,3 C 11,5 C 11,2 C 85 % 0 % 1018 hPa 0,0 l/m 0,0 km/h (0 Bft)
09.09.2009 02:49 20,3 C 11,4 C 11,4 C 85 % 0 % 1018 hPa 0,0 l/m 0,0 km/h (0 Bft)
09.09.2009 02:52 20,3 C 11,4 C 11,2 C 85 % 0 % 1018 hPa 0,0 l/m 0,0 km/h (0 Bft)
09.09.2009 02:55 20,3 C 11,4 C 11,2 C 85 % 0 % 1018 hPa 0,0 l/m 0,0 km/h (0 Bft)
09.09.2009 02:58 20,3 C 11,3 C 10,9 C 86 % 0 % 1018 hPa 0,0 l/m 0,1 km/h (0 Bft)
09.09.2009 03:01 20,3 C 11,3 C 10,9 C 86 % 0 % 1018 hPa 0,0 l/m 0,1 km/h (0 Bft)
09.09.2009 03:04 20,3 C 11,3 C 11,0 C 86 % 0 % 1018 hPa 0,0 l/m 0,0 km/h (0 Bft)
09.09.2009 03:07 20,3 C 11,2 C 11,1 C 86 % 0 % 1018 hPa 0,0 l/m 0,0 km/h (0 Bft)
09.09.2009 03:10 20,3 C 11,2 C 11,1 C 86 % 0 % 1018 hPa 0,0 l/m 0,0 km/h (0 Bft)
09.09.2009 03:13 20,3 C 11,2 C 11,1 C 86 % 0 % 1018 hPa 0,0 l/m 0,0 km/h (0 Bft)
09.09.2009 03:16 20,3 C 11,2 C 11,2 C 85 % 0 % 1018 hPa 0,0 l/m 0,0 km/h (0 Bft)
09.09.2009 03:19 20,3 C 11,2 C 11,2 C 85 % 0 % 1018 hPa 0,0 l/m 0,0 km/h (0 Bft)
09.09.2009 03:22 20,3 C 11,3 C 11,3 C 85 % 0 % 1018 hPa 0,0 l/m 0,0 km/h (0 Bft)
09.09.2009 03:25 20,3 C 11,4 C 11,0 C 85 % 0 % 1018 hPa 0,0 l/m 0,0 km/h (0 Bft)
09.09.2009 03:28 20,3 C 11,4 C 11,0 C 85 % 0 % 1018 hPa 0,0 l/m 0,1 km/h (0 Bft)
09.09.2009 03:31 20,3 C 11,4 C 11,0 C 85 % 0 % 1018 hPa 0,0 l/m 0,1 km/h (0 Bft)
09.09.2009 03:34 20,3 C 11,4 C 11,1 C 85 % 0 % 1018 hPa 0,0 l/m 0,0 km/h (0 Bft)
09.09.2009 03:37 20,3 C 11,4 C 11,0 C 85 % 0 % 1018 hPa 0,0 l/m 0,4 km/h (0 Bft)
09.09.2009 03:40 20,3 C 11,4 C 10,9 C 85 % 0 % 1018 hPa 0,0 l/m 0,3 km/h (0 Bft)
09.09.2009 03:43 20,3 C 11,4 C 10,9 C 85 % 0 % 1018 hPa 0,0 l/m 0,0 km/h (0 Bft)
09.09.2009 03:46 20,3 C 11,4 C 10,9 C 85 % 0 % 1018 hPa 0,0 l/m 0,5 km/h (0 Bft)
09.09.2009 03:49 20,3 C 11,4 C 10,8 C 85 % 0 % 1018 hPa 0,0 l/m 0,0 km/h (0 Bft)
09.09.2009 03:52 20,3 C 11,4 C 11,2 C 85 % 0 % 1018 hPa 0,0 l/m 0,0 km/h (0 Bft)
09.09.2009 03:55 20,3 C 11,4 C 10,9 C 84 % 0 % 1018 hPa 0,0 l/m 0,0 km/h (0 Bft)
09.09.2009 03:58 20,3 C 11,4 C 10,7 C 84 % 0 % 1018 hPa 0,0 l/m 0,0 km/h (0 Bft)
09.09.2009 04:01 20,3 C 11,4 C 10,9 C 84 % 0 % 1018 hPa 0,0 l/m 0,0 km/h (0 Bft)
09.09.2009 04:04 20,3 C 11,3 C 10,9 C 85 % 0 % 1018 hPa 0,0 l/m 0,0 km/h (0 Bft)
09.09.2009 04:07 20,3 C 11,3 C 10,7 C 85 % 0 % 1018 hPa 0,0 l/m 0,0 km/h (0 Bft)
09.09.2009 04:10 20,3 C 11,3 C 11,1 C 85 % 0 % 1018 hPa 0,0 l/m 0,0 km/h (0 Bft)
09.09.2009 04:13 20,3 C 11,3 C 10,9 C 85 % 0 % 1018 hPa 0,0 l/m 0,0 km/h (0 Bft)
09.09.2009 04:16 20,3 C 11,3 C 10,8 C 85 % 0 % 1018 hPa 0,0 l/m 0,1 km/h (0 Bft)
09.09.2009 04:19 20,3 C 11,2 C 10,8 C 85 % 0 % 1018 hPa 0,0 l/m 0,0 km/h (0 Bft)
09.09.2009 04:22 20,3 C 11,2 C 10,7 C 85 % 0 % 1018 hPa 0,0 l/m 0,0 km/h (0 Bft)
09.09.2009 04:25 20,3 C 11,2 C 10,7 C 85 % 0 % 1018 hPa 0,0 l/m 0,0 km/h (0 Bft)
09.09.2009 04:28 20,3 C 11,2 C 10,6 C 85 % 0 % 1018 hPa 0,0 l/m 0,0 km/h (0 Bft)
09.09.2009 04:31 20,2 C 11,2 C 10,6 C 85 % 0 % 1018 hPa 0,0 l/m 0,1 km/h (0 Bft)
09.09.2009 04:34 20,3 C 11,3 C 10,7 C 84 % 0 % 1018 hPa 0,0 l/m 0,0 km/h (0 Bft)
09.09.2009 04:37 20,3 C 11,3 C 10,4 C 84 % 0 % 1018 hPa 0,0 l/m 0,0 km/h (0 Bft)
09.09.2009 04:40 20,2 C 11,3 C 10,4 C 84 % 0 % 1018 hPa 0,0 l/m 0,0 km/h (0 Bft)
09.09.2009 04:43 20,3 C 11,3 C 10,8 C 84 % 0 % 1018 hPa 0,0 l/m 0,0 km/h (0 Bft)
09.09.2009 04:46 20,2 C 11,3 C 10,5 C 83 % 0 % 1018 hPa 0,0 l/m 0,0 km/h (0 Bft)
09.09.2009 04:49 20,2 C 11,3 C 10,6 C 83 % 0 % 1018 hPa 0,0 l/m 0,0 km/h (0 Bft)
09.09.2009 04:52 20,2 C 11,2 C 10,4 C 84 % 0 % 1018 hPa 0,0 l/m 0,0 km/h (0 Bft)
09.09.2009 04:56 20,2 C 11,1 C 10,3 C 84 % 0 % 1018 hPa 0,0 l/m 0,0 km/h (0 Bft)
09.09.2009 04:59 20,2 C 11,1 C 10,6 C 84 % 0 % 1018 hPa 0,0 l/m 0,0 km/h (0 Bft)
09.09.2009 05:02 20,2 C 11,1 C 10,6 C 84 % 0 % 1018 hPa 0,0 l/m 0,0 km/h (0 Bft)
09.09.2009 05:05 20,2 C 11,1 C 10,6 C 84 % 0 % 1018 hPa 0,0 l/m 0,0 km/h (0 Bft)
09.09.2009 05:08 20,2 C 11,1 C 10,3 C 84 % 0 % 1017 hPa 0,0 l/m 0,0 km/h (0 Bft)
09.09.2009 05:11 20,2 C 11,1 C 10,6 C 84 % 0 % 1017 hPa 0,0 l/m 0,0 km/h (0 Bft)
09.09.2009 05:14 20,2 C 11,1 C 10,5 C 84 % 0 % 1017 hPa 0,0 l/m 0,0 km/h (0 Bft)
09.09.2009 05:17 20,2 C 11,1 C 10,2 C 84 % 0 % 1018 hPa 0,0 l/m 0,0 km/h (0 Bft)
09.09.2009 05:20 20,2 C 11,1 C 10,1 C 84 % 0 % 1018 hPa 0,0 l/m 0,0 km/h (0 Bft)
09.09.2009 05:23 20,2 C 11,1 C 10,0 C 84 % 0 % 1018 hPa 0,0 l/m 0,0 km/h (0 Bft)
09.09.2009 05:26 20,2 C 11,1 C 9,9 C 84 % 0 % 1018 hPa 0,0 l/m 0,0 km/h (0 Bft)
09.09.2009 05:29 20,2 C 11,1 C 9,9 C 84 % 0 % 1017 hPa 0,0 l/m 0,0 km/h (0 Bft)
09.09.2009 05:32 20,2 C 11,1 C 10,1 C 84 % 0 % 1017 hPa 0,0 l/m 0,0 km/h (0 Bft)
09.09.2009 05:35 20,2 C 11,1 C 10,3 C 84 % 0 % 1017 hPa 0,0 l/m 0,0 km/h (0 Bft)
09.09.2009 05:38 20,2 C 11,1 C 10,3 C 84 % 0 % 1017 hPa 0,0 l/m 0,0 km/h (0 Bft)
09.09.2009 05:41 20,2 C 11,1 C 10,4 C 84 % 0 % 1017 hPa 0,0 l/m 0,0 km/h (0 Bft)
09.09.2009 05:44 20,2 C 11,1 C 10,4 C 84 % 0 % 1017 hPa 0,0 l/m 0,0 km/h (0 Bft)
09.09.2009 05:47 20,2 C 10,3 C 10,2 C 86 % 0 % 1017 hPa 0,0 l/m 0,0 km/h (0 Bft)
09.09.2009 05:50 20,2 C 10,3 C 10,2 C 86 % 0 % 1017 hPa 0,0 l/m 0,0 km/h (0 Bft)
09.09.2009 05:53 20,2 C 10,3 C 10,1 C 86 % 0 % 1017 hPa 0,0 l/m 0,0 km/h (0 Bft)
09.09.2009 05:56 20,2 C 10,2 C 10,1 C 86 % 0 % 1018 hPa 0,0 l/m 0,0 km/h (0 Bft)
09.09.2009 05:59 20,2 C 10,2 C 9,9 C 86 % 0 % 1018 hPa 0,0 l/m 0,0 km/h (0 Bft)
09.09.2009 06:02 20,2 C 10,2 C 10,4 C 86 % 0 % 1018 hPa 0,0 l/m 0,0 km/h (0 Bft)
09.09.2009 06:05 20,2 C 10,3 C 10,2 C 86 % 0 % 1018 hPa 0,0 l/m 0,0 km/h (0 Bft)
09.09.2009 06:08 20,2 C 10,4 C 10,3 C 86 % 0 % 1018 hPa 0,0 l/m 0,0 km/h (0 Bft)
09.09.2009 06:11 20,2 C 10,4 C 10,0 C 86 % 0 % 1018 hPa 0,0 l/m 0,0 km/h (0 Bft)
09.09.2009 06:14 20,3 C 10,4 C 10,1 C 86 % 0 % 1018 hPa 0,0 l/m 0,0 km/h (0 Bft)
09.09.2009 06:17 20,3 C 10,4 C 10,2 C 86 % 0 % 1018 hPa 0,0 l/m 0,0 km/h (0 Bft)
09.09.2009 06:20 20,3 C 10,4 C 10,2 C 86 % 0 % 1018 hPa 0,0 l/m 0,0 km/h (0 Bft)
09.09.2009 06:23 20,3 C 10,4 C 10,0 C 86 % 0 % 1018 hPa 0,0 l/m 0,0 km/h (0 Bft)
09.09.2009 06:26 20,3 C 10,4 C 10,1 C 86 % 0 % 1018 hPa 0,0 l/m 0,0 km/h (0 Bft)
09.09.2009 06:29 20,3 C 10,3 C 10,0 C 86 % 0 % 1018 hPa 0,0 l/m 0,0 km/h (0 Bft)
09.09.2009 06:32 20,4 C 10,2 C 10,0 C 86 % 0 % 1018 hPa 0,0 l/m 0,0 km/h (0 Bft)
09.09.2009 06:35 20,4 C 10,2 C 10,1 C 86 % 0 % 1018 hPa 0,0 l/m 0,0 km/h (0 Bft)
09.09.2009 06:38 20,4 C 10,2 C 9,9 C 86 % 0 % 1018 hPa 0,0 l/m 0,0 km/h (0 Bft)
09.09.2009 06:41 20,4 C 10,1 C 9,8 C 86 % 0 % 1018 hPa 0,0 l/m 0,0 km/h (0 Bft)
09.09.2009 06:44 20,5 C 10,1 C 9,7 C 86 % 0 % 1018 hPa 0,0 l/m 0,0 km/h (0 Bft)
09.09.2009 06:47 20,5 C 10,1 C 9,8 C 86 % 0 % 1018 hPa 0,0 l/m 0,0 km/h (0 Bft)
09.09.2009 06:50 20,6 C 10,0 C 9,6 C 87 % 0 % 1018 hPa 0,0 l/m 0,7 km/h (0 Bft)
09.09.2009 06:53 20,7 C 10,0 C 9,6 C 87 % 0 % 1018 hPa 0,0 l/m 0,2 km/h (0 Bft)
09.09.2009 06:56 20,7 C 10,0 C 9,5 C 87 % 0 % 1018 hPa 0,0 l/m 0,3 km/h (0 Bft)
09.09.2009 06:59 20,7 C 9,9 C 9,3 C 87 % 0 % 1018 hPa 0,0 l/m 0,1 km/h (0 Bft)
09.09.2009 07:02 20,7 C 9,9 C 9,2 C 87 % 0 % 1018 hPa 0,0 l/m 0,1 km/h (0 Bft)
09.09.2009 07:05 20,7 C 9,9 C 9,6 C 87 % 0 % 1018 hPa 0,0 l/m 0,0 km/h (0 Bft)
09.09.2009 07:08 20,8 C 9,9 C 10,1 C 87 % 0 % 1018 hPa 0,0 l/m 0,4 km/h (0 Bft)
09.09.2009 07:11 20,6 C 10,0 C 10,3 C 87 % 0 % 1018 hPa 0,0 l/m 0,0 km/h (0 Bft)
09.09.2009 07:14 19,5 C 10,0 C 10,6 C 87 % 0 % 1018 hPa 0,0 l/m 0,0 km/h (0 Bft)
09.09.2009 07:17 19,5 C 10,1 C 10,3 C 87 % 0 % 1018 hPa 0,0 l/m 0,0 km/h (0 Bft)
09.09.2009 07:20 19,6 C 10,2 C 10,3 C 87 % 0 % 1018 hPa 0,0 l/m 0,0 km/h (0 Bft)
09.09.2009 07:23 19,7 C 10,5 C 10,9 C 86 % 0 % 1018 hPa 0,0 l/m 0,0 km/h (0 Bft)
09.09.2009 07:26 19,8 C 10,5 C 11,2 C 86 % 0 % 1018 hPa 0,0 l/m 0,0 km/h (0 Bft)
09.09.2009 07:29 19,8 C 10,8 C 11,1 C 86 % 0 % 1018 hPa 0,0 l/m 0,0 km/h (0 Bft)
09.09.2009 07:32 19,9 C 10,8 C 11,4 C 86 % 0 % 1018 hPa 0,0 l/m 0,0 km/h (0 Bft)
09.09.2009 07:35 20,0 C 11,0 C 11,6 C 85 % 0 % 1018 hPa 0,0 l/m 0,0 km/h (0 Bft)
09.09.2009 07:38 20,0 C 11,1 C 11,7 C 84 % 0 % 1018 hPa 0,0 l/m 0,0 km/h (0 Bft)
09.09.2009 07:41 20,0 C 11,2 C 11,8 C 84 % 0 % 1018 hPa 0,0 l/m 0,0 km/h (0 Bft)
09.09.2009 07:44 20,1 C 11,3 C 11,8 C 84 % 0 % 1018 hPa 0,0 l/m 0,0 km/h (0 Bft)
09.09.2009 07:47 20,1 C 11,3 C 12,0 C 84 % 0 % 1018 hPa 0,0 l/m 0,0 km/h (0 Bft)
09.09.2009 07:50 20,1 C 11,4 C 11,9 C 84 % 0 % 1018 hPa 0,0 l/m 0,0 km/h (0 Bft)
09.09.2009 07:53 20,1 C 11,4 C 12,0 C 84 % 0 % 1018 hPa 0,0 l/m 0,0 km/h (0 Bft)
09.09.2009 07:56 20,1 C 11,3 C 12,0 C 84 % 0 % 1018 hPa 0,0 l/m 0,0 km/h (0 Bft)
09.09.2009 07:59 20,2 C 11,4 C 12,6 C 84 % 0 % 1018 hPa 0,0 l/m 0,0 km/h (0 Bft)
09.09.2009 08:02 20,2 C 11,4 C 13,4 C 84 % 0 % 1018 hPa 0,0 l/m 0,0 km/h (0 Bft)
09.09.2009 08:05 20,2 C 11,4 C 14,0 C 84 % 0 % 1018 hPa 0,0 l/m 0,0 km/h (0 Bft)
09.09.2009 08:08 20,2 C 11,6 C 17,4 C 84 % 0 % 1018 hPa 0,0 l/m 0,3 km/h (0 Bft)
09.09.2009 08:11 20,2 C 11,6 C 17,4 C 84 % 0 % 1018 hPa 0,0 l/m 0,7 km/h (0 Bft)
09.09.2009 08:14 20,2 C 11,9 C 25,8 C 83 % 0 % 1018 hPa 0,0 l/m 0,0 km/h (0 Bft)
09.09.2009 08:17 20,2 C 12,1 C 25,6 C 83 % 0 % 1018 hPa 0,0 l/m 0,0 km/h (0 Bft)
09.09.2009 08:20 20,2 C 12,2 C 25,4 C 83 % 0 % 1018 hPa 0,0 l/m 0,0 km/h (0 Bft)
09.09.2009 08:23 20,2 C 12,4 C 26,0 C 82 % 0 % 1018 hPa 0,0 l/m 0,0 km/h (0 Bft)
09.09.2009 08:26 20,2 C 12,4 C 20,6 C 82 % 0 % 1018 hPa 0,0 l/m 0,0 km/h (0 Bft)
09.09.2009 08:29 20,2 C 12,5 C 20,6 C 82 % 0 % 1018 hPa 0,0 l/m 0,0 km/h (0 Bft)
09.09.2009 08:32 20,2 C 12,5 C 19,3 C 82 % 0 % 1018 hPa 0,0 l/m 0,0 km/h (0 Bft)
09.09.2009 08:35 20,2 C 12,9 C 22,2 C 82 % 0 % 1018 hPa 0,0 l/m 0,0 km/h (0 Bft)
09.09.2009 08:38 20,2 C 13,0 C 24,2 C 82 % 0 % 1018 hPa 0,0 l/m 1,8 km/h (1 Bft)
09.09.2009 08:41 20,2 C 13,2 C 23,8 C 82 % 0 % 1018 hPa 0,0 l/m 3,7 km/h (1 Bft)
09.09.2009 08:44 20,2 C 13,2 C 25,0 C 82 % 0 % 1018 hPa 0,0 l/m 2,5 km/h (1 Bft)
09.09.2009 08:47 20,2 C 13,2 C 24,9 C 82 % 0 % 1018 hPa 0,0 l/m 2,5 km/h (1 Bft)
09.09.2009 08:50 20,2 C 13,2 C 20,8 C 82 % 0 % 1018 hPa 0,0 l/m 2,4 km/h (1 Bft)
09.09.2009 08:53 20,2 C 13,2 C 24,4 C 82 % 0 % 1018 hPa 0,0 l/m 2,9 km/h (1 Bft)
09.09.2009 08:56 20,2 C 13,8 C 24,4 C 80 % 0 % 1018 hPa 0,0 l/m 0,0 km/h (0 Bft)
09.09.2009 08:59 20,2 C 13,9 C 32,8 C 80 % 0 % 1018 hPa 0,0 l/m 0,0 km/h (0 Bft)
09.09.2009 09:02 20,2 C 13,9 C 33,3 C 80 % 0 % 1018 hPa 0,0 l/m 0,0 km/h (0 Bft)
09.09.2009 09:05 20,2 C 14,0 C 32,7 C 79 % 0 % 1018 hPa 0,0 l/m 0,0 km/h (0 Bft)
09.09.2009 09:08 20,2 C 14,0 C 31,0 C 78 % 0 % 1018 hPa 0,0 l/m 0,0 km/h (0 Bft)
09.09.2009 09:11 20,2 C 14,2 C 32,1 C 79 % 0 % 1018 hPa 0,0 l/m 0,6 km/h (0 Bft)
09.09.2009 09:14 20,2 C 14,2 C 31,6 C 79 % 0 % 1018 hPa 0,0 l/m 0,6 km/h (0 Bft)
09.09.2009 09:17 20,2 C 14,4 C 30,6 C 78 % 0 % 1018 hPa 0,0 l/m 0,3 km/h (0 Bft)
09.09.2009 09:20 20,2 C 14,4 C 31,3 C 78 % 0 % 1018 hPa 0,0 l/m 0,4 km/h (0 Bft)
09.09.2009 09:23 20,2 C 14,5 C 29,9 C 78 % 0 % 1018 hPa 0,0 l/m 0,0 km/h (0 Bft)
09.09.2009 09:26 20,3 C 14,6 C 28,8 C 78 % 0 % 1018 hPa 0,0 l/m 0,4 km/h (0 Bft)
09.09.2009 09:29 20,3 C 14,8 C 29,3 C 78 % 0 % 1018 hPa 0,0 l/m 3,9 km/h (1 Bft)
09.09.2009 09:32 20,3 C 14,8 C 28,4 C 78 % 0 % 1018 hPa 0,0 l/m 0,6 km/h (0 Bft)
09.09.2009 09:35 20,3 C 15,0 C 29,1 C 77 % 0 % 1018 hPa 0,0 l/m 0,3 km/h (0 Bft)
09.09.2009 09:38 20,2 C 15,0 C 29,4 C 76 % 0 % 1018 hPa 0,0 l/m 1,5 km/h (1 Bft)
09.09.2009 09:41 20,2 C 15,0 C 30,4 C 78 % 0 % 1018 hPa 0,0 l/m 4,2 km/h (1 Bft)
09.09.2009 09:44 20,3 C 15,0 C 30,6 C 78 % 0 % 1018 hPa 0,0 l/m 0,9 km/h (0 Bft)
09.09.2009 09:47 20,2 C 15,1 C 30,2 C 76 % 0 % 1018 hPa 0,0 l/m 0,4 km/h (0 Bft)
09.09.2009 09:50 20,3 C 15,1 C 30,2 C 76 % 0 % 1018 hPa 0,0 l/m 0,4 km/h (0 Bft)
09.09.2009 09:53 20,3 C 15,2 C 32,3 C 76 % 0 % 1018 hPa 0,0 l/m 0,7 km/h (0 Bft)
09.09.2009 09:56 20,3 C 15,3 C 33,7 C 76 % 0 % 1018 hPa 0,0 l/m 0,4 km/h (0 Bft)
09.09.2009 09:59 20,3 C 15,4 C 33,7 C 76 % 0 % 1018 hPa 0,0 l/m 1,0 km/h (0 Bft)
09.09.2009 10:02 20,3 C 15,6 C 35,0 C 76 % 0 % 1018 hPa 0,0 l/m 3,9 km/h (1 Bft)
09.09.2009 10:05 20,3 C 15,6 C 34,5 C 76 % 0 % 1018 hPa 0,0 l/m 0,5 km/h (0 Bft)
09.09.2009 10:08 20,3 C 15,8 C 31,7 C 75 % 0 % 1018 hPa 0,0 l/m 0,1 km/h (0 Bft)
09.09.2009 10:11 20,3 C 16,0 C 31,7 C 75 % 0 % 1018 hPa 0,0 l/m 2,5 km/h (1 Bft)
09.09.2009 10:14 20,3 C 16,1 C 30,9 C 75 % 0 % 1018 hPa 0,0 l/m 2,2 km/h (1 Bft)
09.09.2009 10:17 20,3 C 16,2 C 34,0 C 74 % 0 % 1018 hPa 0,0 l/m 0,1 km/h (0 Bft)
09.09.2009 10:20 20,3 C 16,2 C 30,6 C 74 % 0 % 1018 hPa 0,0 l/m 0,5 km/h (0 Bft)
09.09.2009 10:23 20,3 C 16,3 C 35,1 C 74 % 0 % 1018 hPa 0,0 l/m 3,4 km/h (1 Bft)
09.09.2009 10:26 20,3 C 16,3 C 36,1 C 74 % 0 % 1018 hPa 0,0 l/m 0,0 km/h (0 Bft)
09.09.2009 10:29 20,3 C 16,3 C 36,1 C 74 % 0 % 1018 hPa 0,0 l/m 0,0 km/h (0 Bft)
09.09.2009 10:32 20,3 C 16,3 C 34,2 C 74 % 0 % 1018 hPa 0,0 l/m 0,3 km/h (0 Bft)
09.09.2009 10:35 20,3 C 16,3 C 34,1 C 74 % 0 % 1018 hPa 0,0 l/m 0,3 km/h (0 Bft)
09.09.2009 10:38 20,4 C 16,7 C 34,5 C 75 % 0 % 1018 hPa 0,0 l/m 5,9 km/h (2 Bft)
09.09.2009 10:41 20,3 C 16,8 C 34,9 C 72 % 0 % 1018 hPa 0,0 l/m 6,8 km/h (2 Bft)
09.09.2009 10:44 20,3 C 16,9 C 31,4 C 73 % 0 % 1018 hPa 0,0 l/m 0,6 km/h (0 Bft)
09.09.2009 10:47 20,4 C 17,0 C 28,1 C 74 % 0 % 1018 hPa 0,0 l/m 3,2 km/h (1 Bft)
09.09.2009 10:50 20,4 C 17,1 C 24,2 C 73 % 0 % 1018 hPa 0,0 l/m 3,3 km/h (1 Bft)
09.09.2009 10:53 20,4 C 17,1 C 23,7 C 73 % 0 % 1018 hPa 0,0 l/m 0,7 km/h (0 Bft)
09.09.2009 10:56 20,4 C 17,2 C 22,0 C 71 % 0 % 1018 hPa 0,0 l/m 0,1 km/h (0 Bft)
09.09.2009 10:59 20,4 C 17,2 C 22,4 C 71 % 0 % 1018 hPa 0,0 l/m 0,6 km/h (0 Bft)
09.09.2009 11:02 20,4 C 17,2 C 22,4 C 71 % 0 % 1018 hPa 0,0 l/m 0,2 km/h (0 Bft)
09.09.2009 11:05 20,4 C 17,2 C 25,1 C 72 % 0 % 1018 hPa 0,0 l/m 5,8 km/h (2 Bft)
09.09.2009 11:08 20,4 C 17,2 C 21,6 C 72 % 0 % 1018 hPa 0,0 l/m 0,6 km/h (0 Bft)
09.09.2009 11:11 20,4 C 17,5 C 21,6 C 72 % 0 % 1018 hPa 0,0 l/m 3,7 km/h (1 Bft)
09.09.2009 11:14 20,4 C 17,6 C 23,5 C 71 % 0 % 1018 hPa 0,0 l/m 0,6 km/h (0 Bft)
09.09.2009 11:17 20,4 C 17,6 C 25,8 C 71 % 0 % 1018 hPa 0,0 l/m 0,1 km/h (0 Bft)
09.09.2009 11:20 20,4 C 17,6 C 21,1 C 70 % 0 % 1018 hPa 0,0 l/m 3,3 km/h (1 Bft)
09.09.2009 11:23 20,4 C 17,6 C 19,5 C 71 % 0 % 1018 hPa 0,0 l/m 0,6 km/h (0 Bft)
09.09.2009 11:26 20,4 C 17,6 C 19,6 C 71 % 0 % 1018 hPa 0,0 l/m 1,8 km/h (1 Bft)
09.09.2009 11:29 20,4 C 17,6 C 19,4 C 71 % 0 % 1018 hPa 0,0 l/m 3,0 km/h (1 Bft)
09.09.2009 11:32 20,4 C 17,6 C 20,2 C 71 % 0 % 1018 hPa 0,0 l/m 0,1 km/h (0 Bft)
09.09.2009 11:35 20,4 C 17,6 C 20,3 C 71 % 0 % 1018 hPa 0,0 l/m 0,0 km/h (0 Bft)
09.09.2009 11:38 20,4 C 17,6 C 20,5 C 71 % 0 % 1018 hPa 0,0 l/m 0,0 km/h (0 Bft)
09.09.2009 11:41 20,4 C 17,9 C 21,0 C 69 % 0 % 1018 hPa 0,0 l/m 1,5 km/h (1 Bft)
09.09.2009 11:44 20,4 C 17,9 C 20,2 C 69 % 0 % 1018 hPa 0,0 l/m 0,5 km/h (0 Bft)
09.09.2009 11:47 20,4 C 17,9 C 20,7 C 69 % 0 % 1018 hPa 0,0 l/m 0,2 km/h (0 Bft)
09.09.2009 11:50 20,4 C 18,2 C 22,5 C 70 % 0 % 1018 hPa 0,0 l/m 0,6 km/h (0 Bft)
09.09.2009 11:53 20,4 C 18,2 C 26,0 C 70 % 0 % 1018 hPa 0,0 l/m 2,2 km/h (1 Bft)
09.09.2009 11:56 20,4 C 18,5 C 26,0 C 69 % 0 % 1018 hPa 0,0 l/m 0,0 km/h (0 Bft)
09.09.2009 11:59 20,4 C 18,7 C 26,2 C 67 % 0 % 1018 hPa 0,0 l/m 4,0 km/h (1 Bft)
09.09.2009 12:02 20,4 C 18,7 C 29,0 C 67 % 0 % 1018 hPa 0,0 l/m 4,0 km/h (1 Bft)
09.09.2009 12:05 20,4 C 18,9 C 27,1 C 69 % 0 % 1018 hPa 0,0 l/m 4,0 km/h (1 Bft)
09.09.2009 12:08 20,4 C 19,1 C 26,2 C 68 % 0 % 1018 hPa 0,0 l/m 7,3 km/h (2 Bft)
09.09.2009 12:11 20,4 C 19,1 C 25,6 C 68 % 0 % 1018 hPa 0,0 l/m 5,2 km/h (1 Bft)
09.09.2009 12:14 20,4 C 19,1 C 26,6 C 68 % 0 % 1018 hPa 0,0 l/m 4,8 km/h (1 Bft)
09.09.2009 12:17 20,4 C 19,6 C 27,1 C 68 % 0 % 1018 hPa 0,0 l/m 6,7 km/h (2 Bft)
09.09.2009 12:20 20,4 C 19,6 C 27,0 C 68 % 0 % 1018 hPa 0,0 l/m 6,6 km/h (2 Bft)
09.09.2009 12:23 20,4 C 19,7 C 27,9 C 66 % 0 % 1018 hPa 0,0 l/m 6,8 km/h (2 Bft)
09.09.2009 12:26 20,4 C 19,8 C 26,9 C 65 % 0 % 1018 hPa 0,0 l/m 7,0 km/h (2 Bft)
09.09.2009 12:29 20,4 C 19,8 C 27,6 C 65 % 0 % 1018 hPa 0,0 l/m 10,0 km/h (2 Bft)
09.09.2009 12:32 20,4 C 19,9 C 25,9 C 66 % 0 % 1018 hPa 0,0 l/m 9,6 km/h (2 Bft)
09.09.2009 12:35 20,4 C 20,0 C 23,6 C 64 % 0 % 1018 hPa 0,0 l/m 8,6 km/h (2 Bft)
09.09.2009 12:38 20,4 C 20,0 C 23,0 C 64 % 0 % 1018 hPa 0,0 l/m 9,8 km/h (2 Bft)
09.09.2009 12:41 20,4 C 20,1 C 23,0 C 66 % 0 % 1018 hPa 0,0 l/m 7,0 km/h (2 Bft)
09.09.2009 12:44 20,4 C 20,2 C 22,9 C 66 % 0 % 1018 hPa 0,0 l/m 5,8 km/h (2 Bft)
09.09.2009 12:47 20,4 C 20,2 C 22,5 C 66 % 0 % 1018 hPa 0,0 l/m 11,6 km/h (2 Bft)
09.09.2009 12:50 20,4 C 20,2 C 22,3 C 66 % 0 % 1018 hPa 0,0 l/m 9,9 km/h (2 Bft)
09.09.2009 12:53 20,4 C 20,5 C 21,9 C 63 % 0 % 1018 hPa 0,0 l/m 9,1 km/h (2 Bft)
09.09.2009 12:56 20,4 C 20,6 C 22,1 C 63 % 0 % 1018 hPa 0,0 l/m 11,5 km/h (2 Bft)
09.09.2009 12:59 20,4 C 20,7 C 22,2 C 63 % 0 % 1018 hPa 0,0 l/m 11,5 km/h (2 Bft)
09.09.2009 13:02 20,4 C 20,8 C 22,0 C 63 % 0 % 1017 hPa 0,0 l/m 9,7 km/h (2 Bft)
09.09.2009 13:05 20,4 C 20,9 C 22,3 C 62 % 0 % 1018 hPa 0,0 l/m 12,3 km/h (3 Bft)
09.09.2009 13:08 20,4 C 21,0 C 22,0 C 61 % 0 % 1018 hPa 0,0 l/m 18,3 km/h (3 Bft)
09.09.2009 13:11 20,4 C 21,0 C 22,2 C 61 % 0 % 1018 hPa 0,0 l/m 12,4 km/h (3 Bft)
09.09.2009 13:14 20,4 C 21,2 C 22,2 C 60 % 0 % 1018 hPa 0,0 l/m 18,8 km/h (3 Bft)
09.09.2009 13:17 20,4 C 21,2 C 22,1 C 57 % 0 % 1018 hPa 0,0 l/m 14,8 km/h (3 Bft)
09.09.2009 13:20 20,4 C 21,3 C 22,1 C 56 % 0 % 1018 hPa 0,0 l/m 18,6 km/h (3 Bft)
09.09.2009 13:23 20,4 C 21,4 C 21,9 C 55 % 0 % 1018 hPa 0,0 l/m 18,9 km/h (3 Bft)
09.09.2009 13:26 20,4 C 21,5 C 21,9 C 54 % 0 % 1018 hPa 0,0 l/m 20,4 km/h (4 Bft)
09.09.2009 13:29 20,4 C 21,5 C 22,0 C 54 % 0 % 1017 hPa 0,0 l/m 28,1 km/h (4 Bft)
09.09.2009 13:32 20,4 C 21,5 C 22,1 C 55 % 0 % 1017 hPa 0,0 l/m 18,5 km/h (3 Bft)
09.09.2009 13:35 20,4 C 21,5 C 21,8 C 55 % 0 % 1017 hPa 0,0 l/m 17,7 km/h (3 Bft)
09.09.2009 13:38 20,4 C 21,6 C 22,1 C 55 % 0 % 1017 hPa 0,0 l/m 26,3 km/h (4 Bft)
09.09.2009 13:41 20,4 C 21,6 C 22,0 C 51 % 0 % 1017 hPa 0,0 l/m 23,8 km/h (4 Bft)
09.09.2009 13:44 20,4 C 21,6 C 21,7 C 51 % 0 % 1017 hPa 0,0 l/m 18,6 km/h (3 Bft)
09.09.2009 13:47 20,4 C 21,6 C 21,9 C 53 % 0 % 1017 hPa 0,0 l/m 23,6 km/h (4 Bft)
09.09.2009 13:50 20,4 C 21,6 C 21,9 C 54 % 0 % 1017 hPa 0,0 l/m 22,1 km/h (4 Bft)
09.09.2009 13:53 20,4 C 21,6 C 21,9 C 54 % 0 % 1017 hPa 0,0 l/m 22,0 km/h (4 Bft)
09.09.2009 13:56 20,4 C 21,6 C 21,7 C 54 % 0 % 1017 hPa 0,0 l/m 22,0 km/h (4 Bft)
09.09.2009 13:59 20,4 C 21,6 C 22,0 C 54 % 0 % 1017 hPa 0,0 l/m 24,7 km/h (4 Bft)
09.09.2009 14:02 20,4 C 21,6 C 21,9 C 54 % 0 % 1017 hPa 0,0 l/m 26,9 km/h (4 Bft)
09.09.2009 14:05 20,4 C 21,6 C 21,9 C 55 % 0 % 1017 hPa 0,0 l/m 20,1 km/h (4 Bft)
09.09.2009 14:08 20,4 C 21,7 C 21,9 C 54 % 0 % 1017 hPa 0,0 l/m 20,1 km/h (4 Bft)
09.09.2009 14:11 20,4 C 21,7 C 22,1 C 54 % 0 % 1017 hPa 0,0 l/m 15,8 km/h (3 Bft)
09.09.2009 14:14 20,4 C 21,8 C 22,0 C 55 % 0 % 1017 hPa 0,0 l/m 25,8 km/h (4 Bft)
09.09.2009 14:17 20,5 C 21,7 C 22,0 C 55 % 0 % 1017 hPa 0,0 l/m 19,1 km/h (3 Bft)
09.09.2009 14:20 20,5 C 21,8 C 21,7 C 54 % 0 % 1017 hPa 0,0 l/m 15,3 km/h (3 Bft)
09.09.2009 14:23 20,5 C 21,8 C 22,0 C 53 % 0 % 1017 hPa 0,0 l/m 22,1 km/h (4 Bft)
09.09.2009 14:26 20,5 C 21,8 C 22,1 C 53 % 0 % 1017 hPa 0,0 l/m 20,4 km/h (4 Bft)
09.09.2009 14:29 20,5 C 21,8 C 22,2 C 54 % 0 % 1017 hPa 0,0 l/m 18,4 km/h (3 Bft)
09.09.2009 14:32 20,5 C 21,8 C 22,5 C 54 % 0 % 1017 hPa 0,0 l/m 16,8 km/h (3 Bft)
09.09.2009 14:35 20,5 C 21,8 C 22,8 C 54 % 0 % 1017 hPa 0,0 l/m 17,0 km/h (3 Bft)
09.09.2009 14:38 20,5 C 21,8 C 22,9 C 54 % 0 % 1017 hPa 0,0 l/m 17,8 km/h (3 Bft)
09.09.2009 14:41 20,5 C 21,8 C 23,1 C 53 % 0 % 1017 hPa 0,0 l/m 15,6 km/h (3 Bft)
09.09.2009 14:44 20,6 C 21,8 C 23,7 C 53 % 0 % 1017 hPa 0,0 l/m 15,8 km/h (3 Bft)
09.09.2009 14:47 20,6 C 21,8 C 23,7 C 54 % 0 % 1017 hPa 0,0 l/m 20,9 km/h (4 Bft)
09.09.2009 14:50 20,6 C 21,8 C 23,9 C 55 % 0 % 1017 hPa 0,0 l/m 20,5 km/h (4 Bft)
09.09.2009 14:53 20,6 C 21,8 C 23,5 C 53 % 0 % 1017 hPa 0,0 l/m 15,6 km/h (3 Bft)
09.09.2009 14:56 20,6 C 21,8 C 24,0 C 52 % 0 % 1017 hPa 0,0 l/m 19,4 km/h (3 Bft)
09.09.2009 14:59 20,6 C 21,8 C 24,3 C 53 % 0 % 1017 hPa 0,0 l/m 19,4 km/h (3 Bft)
09.09.2009 15:02 20,7 C 21,8 C 24,8 C 53 % 0 % 1017 hPa 0,0 l/m 16,6 km/h (3 Bft)
09.09.2009 15:05 20,8 C 21,8 C 24,7 C 53 % 0 % 1017 hPa 0,0 l/m 11,8 km/h (2 Bft)
09.09.2009 15:08 20,9 C 21,8 C 24,4 C 53 % 0 % 1017 hPa 0,0 l/m 21,1 km/h (4 Bft)
09.09.2009 15:11 20,9 C 21,8 C 24,4 C 52 % 0 % 1017 hPa 0,0 l/m 18,6 km/h (3 Bft)
09.09.2009 15:14 20,8 C 21,8 C 24,3 C 51 % 0 % 1017 hPa 0,0 l/m 18,3 km/h (3 Bft)
09.09.2009 15:17 20,9 C 21,8 C 24,0 C 54 % 0 % 1017 hPa 0,0 l/m 23,2 km/h (4 Bft)
09.09.2009 15:20 20,9 C 21,8 C 23,8 C 54 % 0 % 1017 hPa 0,0 l/m 23,0 km/h (4 Bft)
09.09.2009 15:23 20,9 C 21,8 C 24,2 C 53 % 0 % 1017 hPa 0,0 l/m 21,3 km/h (4 Bft)
09.09.2009 15:26 20,9 C 21,8 C 24,2 C 53 % 0 % 1017 hPa 0,0 l/m 20,9 km/h (4 Bft)
09.09.2009 15:29 20,9 C 21,8 C 24,7 C 53 % 0 % 1017 hPa 0,0 l/m 14,0 km/h (3 Bft)
09.09.2009 15:32 20,9 C 21,8 C 24,7 C 50 % 0 % 1017 hPa 0,0 l/m 17,8 km/h (3 Bft)
09.09.2009 15:35 20,9 C 21,8 C 24,4 C 50 % 0 % 1017 hPa 0,0 l/m 16,0 km/h (3 Bft)
09.09.2009 15:38 20,8 C 21,8 C 23,9 C 52 % 0 % 1017 hPa 0,0 l/m 18,2 km/h (3 Bft)
09.09.2009 15:41 20,8 C 21,7 C 24,1 C 53 % 0 % 1017 hPa 0,0 l/m 15,0 km/h (3 Bft)
09.09.2009 15:44 20,8 C 21,7 C 23,9 C 55 % 0 % 1017 hPa 0,0 l/m 16,3 km/h (3 Bft)
09.09.2009 15:47 20,8 C 21,7 C 23,8 C 53 % 0 % 1017 hPa 0,0 l/m 15,7 km/h (3 Bft)
09.09.2009 15:50 20,8 C 21,7 C 23,3 C 53 % 0 % 1017 hPa 0,0 l/m 15,6 km/h (3 Bft)
09.09.2009 15:53 20,8 C 21,7 C 24,1 C 53 % 0 % 1017 hPa 0,0 l/m 14,6 km/h (3 Bft)
09.09.2009 15:56 20,8 C 21,6 C 24,6 C 56 % 0 % 1017 hPa 0,0 l/m 11,7 km/h (2 Bft)
09.09.2009 15:59 20,9 C 21,6 C 24,6 C 56 % 0 % 1017 hPa 0,0 l/m 12,0 km/h (2 Bft)
09.09.2009 16:02 20,9 C 21,6 C 24,5 C 56 % 0 % 1017 hPa 0,0 l/m 10,9 km/h (2 Bft)
09.09.2009 16:05 20,9 C 21,7 C 24,1 C 57 % 0 % 1017 hPa 0,0 l/m 15,3 km/h (3 Bft)
09.09.2009 16:08 21,0 C 21,7 C 23,9 C 56 % 0 % 1017 hPa 0,0 l/m 10,9 km/h (2 Bft)
09.09.2009 16:11 20,9 C 21,6 C 24,7 C 57 % 0 % 1017 hPa 0,0 l/m 9,2 km/h (2 Bft)
09.09.2009 16:14 21,0 C 21,6 C 24,8 C 56 % 0 % 1017 hPa 0,0 l/m 7,1 km/h (2 Bft)
09.09.2009 16:17 21,0 C 21,6 C 24,8 C 55 % 0 % 1017 hPa 0,0 l/m 11,3 km/h (2 Bft)
09.09.2009 16:20 21,0 C 21,6 C 24,2 C 56 % 0 % 1017 hPa 0,0 l/m 11,3 km/h (2 Bft)
09.09.2009 16:23 21,1 C 21,5 C 23,6 C 57 % 0 % 1017 hPa 0,0 l/m 11,9 km/h (2 Bft)
09.09.2009 16:26 21,2 C 21,5 C 23,6 C 57 % 0 % 1017 hPa 0,0 l/m 9,3 km/h (2 Bft)
09.09.2009 16:29 21,2 C 21,5 C 23,4 C 57 % 0 % 1017 hPa 0,0 l/m 7,0 km/h (2 Bft)
09.09.2009 16:32 21,2 C 21,5 C 23,6 C 57 % 0 % 1017 hPa 0,0 l/m 6,4 km/h (2 Bft)
09.09.2009 16:35 21,2 C 21,4 C 23,8 C 57 % 0 % 1017 hPa 0,0 l/m 10,8 km/h (2 Bft)
09.09.2009 16:38 21,2 C 21,4 C 23,8 C 57 % 0 % 1017 hPa 0,0 l/m 4,3 km/h (1 Bft)
09.09.2009 16:41 21,1 C 21,4 C 23,7 C 58 % 0 % 1017 hPa 0,0 l/m 11,7 km/h (2 Bft)
09.09.2009 16:44 21,1 C 21,4 C 23,6 C 56 % 0 % 1017 hPa 0,0 l/m 9,7 km/h (2 Bft)
09.09.2009 16:47 21,1 C 21,4 C 23,1 C 56 % 0 % 1017 hPa 0,0 l/m 11,5 km/h (2 Bft)
09.09.2009 16:50 21,0 C 21,4 C 23,7 C 56 % 0 % 1017 hPa 0,0 l/m 9,6 km/h (2 Bft)
09.09.2009 16:53 21,0 C 21,4 C 23,9 C 57 % 0 % 1017 hPa 0,0 l/m 9,6 km/h (2 Bft)
09.09.2009 16:56 21,0 C 21,5 C 23,9 C 56 % 0 % 1017 hPa 0,0 l/m 11,0 km/h (2 Bft)
09.09.2009 16:59 21,0 C 21,4 C 23,5 C 57 % 0 % 1017 hPa 0,0 l/m 11,0 km/h (2 Bft)
09.09.2009 17:02 21,0 C 21,4 C 23,5 C 57 % 0 % 1017 hPa 0,0 l/m 4,8 km/h (1 Bft)
09.09.2009 17:05 21,0 C 21,4 C 23,5 C 57 % 0 % 1017 hPa 0,0 l/m 4,8 km/h (1 Bft)
09.09.2009 17:08 21,0 C 21,4 C 23,5 C 57 % 0 % 1017 hPa 0,0 l/m 10,1 km/h (2 Bft)
09.09.2009 17:11 21,0 C 21,4 C 23,3 C 57 % 0 % 1017 hPa 0,0 l/m 11,0 km/h (2 Bft)
09.09.2009 17:14 21,0 C 21,4 C 23,5 C 57 % 0 % 1017 hPa 0,0 l/m 9,0 km/h (2 Bft)
09.09.2009 17:17 21,0 C 21,4 C 23,3 C 57 % 0 % 1017 hPa 0,0 l/m 7,8 km/h (2 Bft)
09.09.2009 17:20 21,0 C 21,4 C 22,7 C 58 % 0 % 1017 hPa 0,0 l/m 5,6 km/h (1 Bft)
09.09.2009 17:23 20,9 C 21,4 C 22,6 C 58 % 0 % 1017 hPa 0,0 l/m 10,2 km/h (2 Bft)
09.09.2009 17:26 20,9 C 21,4 C 22,1 C 57 % 0 % 1017 hPa 0,0 l/m 12,4 km/h (3 Bft)
09.09.2009 17:29 21,0 C 21,3 C 21,8 C 57 % 0 % 1017 hPa 0,0 l/m 8,9 km/h (2 Bft)
09.09.2009 17:32 20,9 C 21,2 C 21,9 C 57 % 0 % 1017 hPa 0,0 l/m 11,5 km/h (2 Bft)
09.09.2009 17:35 20,9 C 21,2 C 21,8 C 57 % 0 % 1017 hPa 0,0 l/m 5,2 km/h (1 Bft)
09.09.2009 17:38 20,9 C 21,1 C 21,7 C 57 % 0 % 1017 hPa 0,0 l/m 9,5 km/h (2 Bft)
09.09.2009 17:41 20,9 C 21,0 C 21,7 C 58 % 0 % 1017 hPa 0,0 l/m 9,5 km/h (2 Bft)
09.09.2009 17:44 20,9 C 21,0 C 21,9 C 58 % 0 % 1017 hPa 0,0 l/m 3,6 km/h (1 Bft)
09.09.2009 17:47 21,0 C 21,0 C 21,8 C 58 % 0 % 1017 hPa 0,0 l/m 9,1 km/h (2 Bft)
09.09.2009 17:50 20,9 C 21,0 C 21,6 C 58 % 0 % 1017 hPa 0,0 l/m 8,9 km/h (2 Bft)
09.09.2009 17:53 20,9 C 21,0 C 21,8 C 58 % 0 % 1017 hPa 0,0 l/m 5,7 km/h (1 Bft)
09.09.2009 17:56 20,9 C 21,0 C 21,8 C 57 % 0 % 1017 hPa 0,0 l/m 5,9 km/h (2 Bft)
09.09.2009 17:59 20,9 C 20,9 C 21,7 C 57 % 0 % 1017 hPa 0,0 l/m 5,5 km/h (1 Bft)
09.09.2009 18:02 20,9 C 20,9 C 21,4 C 58 % 0 % 1017 hPa 0,0 l/m 6,8 km/h (2 Bft)
09.09.2009 18:05 20,9 C 20,9 C 21,4 C 58 % 0 % 1017 hPa 0,0 l/m 5,7 km/h (1 Bft)
09.09.2009 18:08 20,9 C 20,8 C 21,4 C 58 % 0 % 1017 hPa 0,0 l/m 5,7 km/h (1 Bft)
09.09.2009 18:11 21,0 C 20,8 C 21,2 C 59 % 0 % 1017 hPa 0,0 l/m 3,7 km/h (1 Bft)
09.09.2009 18:14 20,9 C 20,8 C 21,2 C 59 % 0 % 1017 hPa 0,0 l/m 5,5 km/h (1 Bft)
09.09.2009 18:17 20,9 C 20,7 C 21,2 C 59 % 0 % 1017 hPa 0,0 l/m 7,2 km/h (2 Bft)
09.09.2009 18:20 20,9 C 20,7 C 20,9 C 59 % 0 % 1017 hPa 0,0 l/m 4,2 km/h (1 Bft)
09.09.2009 18:23 20,9 C 20,7 C 20,8 C 59 % 0 % 1017 hPa 0,0 l/m 5,0 km/h (1 Bft)
09.09.2009 18:26 20,9 C 20,6 C 20,7 C 59 % 0 % 1017 hPa 0,0 l/m 4,9 km/h (1 Bft)
09.09.2009 18:29 20,9 C 20,5 C 20,5 C 59 % 0 % 1017 hPa 0,0 l/m 4,2 km/h (1 Bft)
09.09.2009 18:32 20,8 C 20,5 C 20,5 C 59 % 0 % 1017 hPa 0,0 l/m 7,6 km/h (2 Bft)
09.09.2009 18:35 20,8 C 20,4 C 20,4 C 59 % 0 % 1017 hPa 0,0 l/m 4,4 km/h (1 Bft)
09.09.2009 18:38 20,8 C 20,4 C 20,4 C 59 % 0 % 1017 hPa 0,0 l/m 4,3 km/h (1 Bft)
09.09.2009 18:41 20,8 C 20,4 C 20,5 C 60 % 0 % 1017 hPa 0,0 l/m 5,2 km/h (1 Bft)
09.09.2009 18:44 20,8 C 20,4 C 20,2 C 60 % 0 % 1017 hPa 0,0 l/m 6,5 km/h (2 Bft)
09.09.2009 18:47 20,8 C 20,4 C 20,1 C 60 % 0 % 1017 hPa 0,0 l/m 4,5 km/h (1 Bft)
09.09.2009 18:50 20,8 C 20,2 C 20,0 C 60 % 0 % 1017 hPa 0,0 l/m 1,3 km/h (1 Bft)
09.09.2009 18:53 20,8 C 20,2 C 19,6 C 60 % 0 % 1017 hPa 0,0 l/m 3,0 km/h (1 Bft)
09.09.2009 18:56 20,8 C 20,0 C 19,7 C 60 % 0 % 1017 hPa 0,0 l/m 1,3 km/h (1 Bft)
09.09.2009 18:59 20,8 C 20,0 C 19,4 C 60 % 0 % 1017 hPa 0,0 l/m 1,3 km/h (1 Bft)
09.09.2009 19:02 20,7 C 19,9 C 19,3 C 60 % 0 % 1017 hPa 0,0 l/m 4,2 km/h (1 Bft)
09.09.2009 19:05 20,7 C 19,8 C 19,1 C 60 % 0 % 1017 hPa 0,0 l/m 3,2 km/h (1 Bft)
09.09.2009 19:08 20,7 C 19,8 C 18,8 C 61 % 0 % 1017 hPa 0,0 l/m 0,3 km/h (0 Bft)
09.09.2009 19:11 20,7 C 19,7 C 18,7 C 61 % 0 % 1017 hPa 0,0 l/m 3,9 km/h (1 Bft)
09.09.2009 19:14 20,7 C 19,6 C 18,7 C 61 % 0 % 1017 hPa 0,0 l/m 4,1 km/h (1 Bft)
09.09.2009 19:17 20,6 C 19,4 C 18,5 C 62 % 0 % 1017 hPa 0,0 l/m 2,2 km/h (1 Bft)
09.09.2009 19:20 20,7 C 19,4 C 18,3 C 62 % 0 % 1017 hPa 0,0 l/m 2,2 km/h (1 Bft)
09.09.2009 19:23 20,7 C 19,2 C 18,2 C 62 % 0 % 1017 hPa 0,0 l/m 0,8 km/h (0 Bft)
09.09.2009 19:26 20,7 C 19,1 C 18,0 C 63 % 0 % 1017 hPa 0,0 l/m 0,1 km/h (0 Bft)
09.09.2009 19:29 20,7 C 19,0 C 17,8 C 63 % 0 % 1017 hPa 0,0 l/m 0,9 km/h (0 Bft)
09.09.2009 19:32 20,8 C 18,9 C 17,8 C 63 % 0 % 1017 hPa 0,0 l/m 4,2 km/h (1 Bft)
09.09.2009 19:35 20,8 C 18,8 C 17,4 C 63 % 0 % 1017 hPa 0,0 l/m 0,1 km/h (0 Bft)
09.09.2009 19:38 20,8 C 18,7 C 17,2 C 64 % 0 % 1017 hPa 0,0 l/m 0,0 km/h (0 Bft)
09.09.2009 19:41 20,8 C 18,6 C 17,2 C 64 % 0 % 1017 hPa 0,0 l/m 0,2 km/h (0 Bft)
09.09.2009 19:44 20,8 C 18,5 C 16,9 C 64 % 0 % 1017 hPa 0,0 l/m 0,2 km/h (0 Bft)
09.09.2009 19:47 20,8 C 18,4 C 16,7 C 64 % 0 % 1017 hPa 0,0 l/m 0,0 km/h (0 Bft)
09.09.2009 19:50 20,8 C 18,4 C 16,7 C 65 % 0 % 1017 hPa 0,0 l/m 0,0 km/h (0 Bft)
09.09.2009 19:53 20,6 C 18,3 C 16,5 C 65 % 0 % 1017 hPa 0,0 l/m 0,0 km/h (0 Bft)
09.09.2009 19:56 20,7 C 18,2 C 16,7 C 65 % 0 % 1017 hPa 0,0 l/m 0,3 km/h (0 Bft)
09.09.2009 19:59 20,6 C 18,2 C 16,6 C 65 % 0 % 1017 hPa 0,0 l/m 0,0 km/h (0 Bft)
09.09.2009 20:02 20,6 C 18,1 C 16,5 C 66 % 0 % 1017 hPa 0,0 l/m 0,0 km/h (0 Bft)
09.09.2009 20:05 20,7 C 18,1 C 16,5 C 66 % 0 % 1017 hPa 0,0 l/m 0,0 km/h (0 Bft)
09.09.2009 20:08 20,7 C 18,1 C 16,5 C 66 % 0 % 1018 hPa 0,0 l/m 0,0 km/h (0 Bft)
09.09.2009 20:11 20,7 C 17,8 C 16,3 C 66 % 0 % 1018 hPa 0,0 l/m 0,0 km/h (0 Bft)
09.09.2009 20:14 20,7 C 17,8 C 16,1 C 66 % 0 % 1018 hPa 0,0 l/m 0,0 km/h (0 Bft)
09.09.2009 20:17 20,7 C 17,7 C 16,1 C 66 % 0 % 1018 hPa 0,0 l/m 0,0 km/h (0 Bft)
09.09.2009 20:20 20,7 C 17,6 C 16,1 C 67 % 0 % 1018 hPa 0,0 l/m 0,0 km/h (0 Bft)
09.09.2009 20:23 20,7 C 17,6 C 16,1 C 67 % 0 % 1018 hPa 0,0 l/m 0,0 km/h (0 Bft)
09.09.2009 20:26 20,7 C 17,4 C 16,2 C 67 % 0 % 1018 hPa 0,0 l/m 0,0 km/h (0 Bft)
09.09.2009 20:29 20,7 C 17,4 C 16,0 C 68 % 0 % 1018 hPa 0,0 l/m 0,0 km/h (0 Bft)
09.09.2009 20:32 20,7 C 17,2 C 16,0 C 68 % 0 % 1018 hPa 0,0 l/m 0,0 km/h (0 Bft)
09.09.2009 20:35 20,7 C 17,2 C 15,8 C 68 % 0 % 1018 hPa 0,0 l/m 0,0 km/h (0 Bft)
09.09.2009 20:38 20,7 C 17,2 C 15,8 C 68 % 0 % 1018 hPa 0,0 l/m 0,0 km/h (0 Bft)
09.09.2009 20:41 20,7 C 17,2 C 15,8 C 68 % 0 % 1018 hPa 0,0 l/m 0,0 km/h (0 Bft)
09.09.2009 20:44 20,7 C 17,1 C 15,9 C 69 % 0 % 1018 hPa 0,0 l/m 0,0 km/h (0 Bft)
09.09.2009 20:47 20,7 C 17,0 C 15,6 C 70 % 0 % 1018 hPa 0,0 l/m 0,0 km/h (0 Bft)
09.09.2009 20:50 20,7 C 17,0 C 15,5 C 70 % 0 % 1018 hPa 0,0 l/m 0,0 km/h (0 Bft)
09.09.2009 20:53 20,7 C 16,9 C 15,5 C 70 % 0 % 1018 hPa 0,0 l/m 0,0 km/h (0 Bft)
09.09.2009 20:56 20,7 C 16,8 C 15,3 C 71 % 0 % 1018 hPa 0,0 l/m 0,0 km/h (0 Bft)
09.09.2009 20:59 20,7 C 16,8 C 15,4 C 72 % 0 % 1018 hPa 0,0 l/m 0,0 km/h (0 Bft)
09.09.2009 21:02 20,7 C 16,8 C 15,5 C 72 % 0 % 1018 hPa 0,0 l/m 0,0 km/h (0 Bft)
09.09.2009 21:05 20,7 C 16,7 C 15,7 C 72 % 0 % 1018 hPa 0,0 l/m 0,0 km/h (0 Bft)
09.09.2009 21:08 20,7 C 16,7 C 15,6 C 72 % 0 % 1018 hPa 0,0 l/m 0,0 km/h (0 Bft)
09.09.2009 21:11 20,7 C 16,7 C 15,5 C 72 % 0 % 1018 hPa 0,0 l/m 0,0 km/h (0 Bft)
09.09.2009 21:14 20,7 C 16,4 C 15,5 C 73 % 0 % 1018 hPa 0,0 l/m 0,3 km/h (0 Bft)
09.09.2009 21:17 20,7 C 16,4 C 15,3 C 73 % 0 % 1018 hPa 0,0 l/m 0,0 km/h (0 Bft)
09.09.2009 21:20 20,6 C 16,4 C 15,3 C 73 % 0 % 1018 hPa 0,0 l/m 0,0 km/h (0 Bft)
09.09.2009 21:23 20,6 C 16,4 C 15,3 C 73 % 0 % 1018 hPa 0,0 l/m 0,1 km/h (0 Bft)
09.09.2009 21:26 20,7 C 16,4 C 15,0 C 73 % 0 % 1018 hPa 0,0 l/m 0,0 km/h (0 Bft)
09.09.2009 21:29 20,7 C 16,3 C 15,3 C 74 % 0 % 1018 hPa 0,0 l/m 0,0 km/h (0 Bft)
09.09.2009 21:32 20,6 C 16,2 C 15,3 C 75 % 0 % 1018 hPa 0,0 l/m 0,0 km/h (0 Bft)
09.09.2009 21:35 20,6 C 16,2 C 15,0 C 75 % 0 % 1018 hPa 0,0 l/m 0,0 km/h (0 Bft)
09.09.2009 21:38 20,6 C 16,2 C 15,0 C 75 % 0 % 1018 hPa 0,0 l/m 0,0 km/h (0 Bft)
09.09.2009 21:41 20,6 C 16,1 C 15,0 C 74 % 0 % 1018 hPa 0,0 l/m 0,0 km/h (0 Bft)
09.09.2009 21:44 20,7 C 16,1 C 15,0 C 74 % 0 % 1018 hPa 0,0 l/m 0,0 km/h (0 Bft)
09.09.2009 21:47 20,6 C 16,1 C 15,0 C 74 % 0 % 1018 hPa 0,0 l/m 0,0 km/h (0 Bft)
09.09.2009 21:50 20,6 C 16,1 C 15,1 C 74 % 0 % 1018 hPa 0,0 l/m 0,0 km/h (0 Bft)
09.09.2009 21:53 20,6 C 16,0 C 14,9 C 75 % 0 % 1018 hPa 0,0 l/m 0,0 km/h (0 Bft)
09.09.2009 21:56 20,6 C 16,0 C 14,7 C 75 % 0 % 1018 hPa 0,0 l/m 0,0 km/h (0 Bft)
09.09.2009 21:59 20,6 C 16,0 C 14,6 C 75 % 0 % 1018 hPa 0,0 l/m 0,0 km/h (0 Bft)
09.09.2009 22:02 20,6 C 15,7 C 14,7 C 77 % 0 % 1018 hPa 0,0 l/m 0,0 km/h (0 Bft)
09.09.2009 22:05 20,6 C 15,7 C 15,0 C 77 % 0 % 1018 hPa 0,0 l/m 0,0 km/h (0 Bft)
09.09.2009 22:08 20,6 C 15,7 C 15,0 C 77 % 0 % 1018 hPa 0,0 l/m 0,0 km/h (0 Bft)
09.09.2009 22:11 20,6 C 15,7 C 14,9 C 77 % 0 % 1018 hPa 0,0 l/m 0,0 km/h (0 Bft)
09.09.2009 22:14 20,6 C 15,8 C 14,8 C 77 % 0 % 1018 hPa 0,0 l/m 0,0 km/h (0 Bft)
09.09.2009 22:17 20,6 C 15,8 C 14,9 C 77 % 0 % 1018 hPa 0,0 l/m 0,0 km/h (0 Bft)
09.09.2009 22:20 20,6 C 15,7 C 14,7 C 77 % 0 % 1018 hPa 0,0 l/m 0,0 km/h (0 Bft)
09.09.2009 22:23 20,6 C 15,8 C 14,8 C 77 % 0 % 1018 hPa 0,0 l/m 0,0 km/h (0 Bft)
09.09.2009 22:26 20,6 C 15,7 C 14,8 C 77 % 0 % 1018 hPa 0,0 l/m 0,0 km/h (0 Bft)
09.09.2009 22:29 20,6 C 15,7 C 14,7 C 77 % 0 % 1018 hPa 0,0 l/m 0,0 km/h (0 Bft)
09.09.2009 22:32 20,6 C 15,7 C 14,7 C 76 % 0 % 1018 hPa 0,0 l/m 0,0 km/h (0 Bft)
09.09.2009 22:35 20,6 C 15,7 C 14,8 C 76 % 0 % 1018 hPa 0,0 l/m 0,0 km/h (0 Bft)
09.09.2009 22:38 20,6 C 15,6 C 14,7 C 76 % 0 % 1018 hPa 0,0 l/m 0,0 km/h (0 Bft)
09.09.2009 22:41 20,6 C 15,6 C 14,6 C 76 % 0 % 1018 hPa 0,0 l/m 0,0 km/h (0 Bft)
09.09.2009 22:44 20,6 C 15,6 C 14,6 C 76 % 0 % 1018 hPa 0,0 l/m 0,0 km/h (0 Bft)
09.09.2009 22:47 20,6 C 15,6 C 14,6 C 76 % 0 % 1018 hPa 0,0 l/m 0,0 km/h (0 Bft)
09.09.2009 22:50 20,6 C 15,6 C 14,5 C 76 % 0 % 1018 hPa 0,0 l/m 0,0 km/h (0 Bft)
09.09.2009 22:53 20,6 C 15,6 C 14,5 C 77 % 0 % 1018 hPa 0,0 l/m 0,0 km/h (0 Bft)
09.09.2009 22:56 20,6 C 15,5 C 14,5 C 77 % 0 % 1018 hPa 0,0 l/m 0,0 km/h (0 Bft)
09.09.2009 22:59 20,6 C 15,4 C 14,6 C 76 % 0 % 1018 hPa 0,0 l/m 0,0 km/h (0 Bft)
09.09.2009 23:02 20,6 C 15,4 C 14,5 C 77 % 0 % 1018 hPa 0,0 l/m 0,0 km/h (0 Bft)
09.09.2009 23:05 20,6 C 15,3 C 14,3 C 77 % 0 % 1018 hPa 0,0 l/m 0,0 km/h (0 Bft)
09.09.2009 23:08 20,6 C 15,3 C 14,5 C 78 % 0 % 1018 hPa 0,0 l/m 0,0 km/h (0 Bft)
09.09.2009 23:11 20,6 C 15,3 C 14,4 C 78 % 0 % 1018 hPa 0,0 l/m 0,0 km/h (0 Bft)
09.09.2009 23:14 20,6 C 15,2 C 14,4 C 78 % 0 % 1018 hPa 0,0 l/m 0,0 km/h (0 Bft)
09.09.2009 23:17 20,6 C 15,2 C 14,3 C 78 % 0 % 1018 hPa 0,0 l/m 0,0 km/h (0 Bft)
09.09.2009 23:20 20,6 C 15,2 C 14,3 C 78 % 0 % 1018 hPa 0,0 l/m 0,0 km/h (0 Bft)
09.09.2009 23:23 20,6 C 15,0 C 14,2 C 78 % 0 % 1018 hPa 0,0 l/m 0,0 km/h (0 Bft)
09.09.2009 23:26 20,6 C 15,0 C 14,1 C 78 % 0 % 1018 hPa 0,0 l/m 0,0 km/h (0 Bft)
09.09.2009 23:29 20,6 C 15,0 C 14,2 C 78 % 0 % 1018 hPa 0,0 l/m 0,0 km/h (0 Bft)
09.09.2009 23:32 20,6 C 15,0 C 14,1 C 79 % 0 % 1018 hPa 0,0 l/m 0,0 km/h (0 Bft)
09.09.2009 23:35 20,6 C 15,0 C 14,1 C 79 % 0 % 1018 hPa 0,0 l/m 0,0 km/h (0 Bft)
09.09.2009 23:38 20,6 C 15,0 C 14,1 C 79 % 0 % 1018 hPa 0,0 l/m 0,0 km/h (0 Bft)
09.09.2009 23:41 20,6 C 15,0 C 14,1 C 80 % 0 % 1018 hPa 0,0 l/m 0,0 km/h (0 Bft)
09.09.2009 23:44 20,6 C 15,0 C 14,1 C 80 % 0 % 1018 hPa 0,0 l/m 0,0 km/h (0 Bft)
09.09.2009 23:47 20,6 C 15,0 C 14,1 C 80 % 0 % 1018 hPa 0,0 l/m 0,0 km/h (0 Bft)
09.09.2009 23:50 20,6 C 15,0 C 13,8 C 80 % 0 % 1018 hPa 0,0 l/m 0,0 km/h (0 Bft)
09.09.2009 23:53 20,6 C 15,0 C 14,0 C 80 % 0 % 1018 hPa 0,0 l/m 0,0 km/h (0 Bft)
09.09.2009 23:56 20,6 C 15,0 C 13,9 C 80 % 0 % 1018 hPa 0,0 l/m 0,0 km/h (0 Bft)
09.09.2009 23:59 20,6 C 15,0 C 14,0 C 80 % 0 % 1018 hPa 0,0 l/m 0,0 km/h (0 Bft)
_ Min-Zeit 07:14 06:59 07:02 15:32 - 05:08 - 00:01
Minimum _ 19,5 C 9,9 C 9,2 C 50 % - 1017 hPa - 0,0 km/h (0 Bft)
_ Max-Zeit 16:26 14:14 10:26 06:50 00:01 00:01 00:01 13:29
Maximum _ 21,2 C 21,8 C 36,1 C 87 % 0 % 1019 hPa 0,0 l/m 28,1 km/h
O-SO (4 Bft)
Durchschnitt _ 20,5 C 16,0 C 18,1 C 72 % #0 min. 1018 hPa #0,0 l/m 3,9 km/h (1 Bft)